Torna al catalogo

SL-8 DEB

AttivoPO
NORAD 24752·DEBRIS·🇷🇺 Russia

Lanciato Jan 29, 1991 da Plesetsk Cosmodrome

Loading…

Prossimi Passaggi (prossime 24 ore)

TLE

AggiornatoSource: Space-Track

Epoca: Sep 14, 2026, 04:28 UTC

1 24752U 91006C   26257.18654381  .00000231  00000-0  19873-3 0  9991
2 24752  82.9106 333.4703 0024556 110.0868 279.0284 13.82345533563774

Traccia SL-8 DEB in tempo reale con AllMySat

Download on the App Store